{"data":{"norad_id":58374,"intl_designator":"2023-178A","name":"STARLINK-30911","alt_names":[],"object_type":"PAYLOAD","status":"ACTIVE","operator":null,"country":"US","launch_date":"2023-11-20","launch_site_code":"AFWTR","launch_vehicle":null,"mission":null,"orbit_class":"UNKNOWN","rcs_meters":null,"size_class":null,"mass_kg":null,"dimensions":null,"purposes":["comms"],"wikipedia_slug":null,"has_3d_model":false,"image_url":null,"decayed_at":null,"tle_current":{"epoch":"2026-05-25T00:38:58.792704Z","epoch_age_seconds":62847,"freshness":"FRESH","line1":"1 58374U 23178A   26145.02706936  .00000718  00000+0  32380-4 0  9994","line2":"2 58374  53.1607   5.4556 0001079  78.7307 281.3816 15.34393368141588","mean_motion":15.34393368,"eccentricity":0.0001079,"inclination_deg":53.1607,"raan_deg":5.4556,"arg_perigee_deg":78.7307,"mean_anomaly_deg":281.3816,"bstar":3.238e-5,"rev_number":14158,"period_min":93.848163712866,"perigee_km":461.98482319092,"apogee_km":463.46108076855,"semimajor_km":6840.8599519797,"source":"CELESTRAK","updated_at":"2026-05-25T13:38:18.611415Z"}}}